Theta_e
309 307 309 311 313 315 318 316 316 315 318 322 323 323 324 324 323 323 322 322 323 325 325 324 324 324 322 320 318 319 325 328 328 329 330 324 327 324 325 327 330 330 327 329 336
309 307 307 310 312 314 317 316 315 315 315 321 322 322 321 321 320 320 322 321 318 322 322 324 326 325 323 321 319 320 325 327 323 324 327 324 326 325 329 330 332 334 331 331 335
307 307 307 309 311 313 316 317 315 315 315 318 321 321 321 319 315 318 321 317 317 318 319 322 325 324 323 320 321 320 325 323 322 321 322 323 325 322 327 329 329 332 332 330 332
307 306 307 308 310 313 316 317 316 315 315 314 319 320 320 319 325 321 321 317 318 321 322 323 325 324 324 323 321 324 321 322 322 320 322 323 321 323 325 326 322 326 330 331 330
305 306 306 308 307 311 314 316 317 316 314 314 316 319 320 321 317 323 324 322 321 320 323 322 326 324 325 323 323 323 322 321 320 319 320 320 321 322 322 319 322 328 331 330 330
305 304 305 306 306 307 312 314 315 316 316 314 315 318 319 318 314 319 322 322 324 320 322 324 324 324 324 325 322 321 322 321 320 321 321 322 322 322 321 321 324 330 330 329 329
304 304 304 306 306 306 308 313 315 315 317 314 315 318 316 315 314 318 321 320 323 324 321 322 324 324 324 324 321 322 324 321 321 321 322 321 323 321 320 320 324 327 327 327 328
304 303 304 304 304 305 306 311 314 315 317 315 314 315 311 313 314 321 320 320 325 326 325 325 323 324 326 323 320 323 320 324 321 321 321 321 322 318 317 319 321 320 319 321 322
304 303 303 303 304 305 306 311 313 314 315 315 315 312 311 311 311 317 319 318 323 325 325 324 323 323 325 322 323 319 323 324 323 319 321 321 322 319 316 317 318 316 315 315 314
304 303 302 303 301 306 306 311 312 313 315 315 314 312 311 312 311 315 316 320 322 324 325 324 322 323 320 321 322 325 323 322 322 319 320 322 322 320 317 315 315 314 313 312 312
304 304 302 302 301 304 306 311 312 314 315 316 314 314 311 312 312 312 314 319 321 323 325 326 326 324 324 323 320 320 322 320 320 318 319 318 319 319 316 316 316 315 314 312 311
305 304 303 303 302 302 306 310 309 310 316 313 313 313 312 312 313 315 314 318 320 322 323 326 322 319 319 322 325 322 322 322 319 318 318 318 317 316 315 314 314 315 314 314 313
306 305 304 303 302 304 306 308 309 311 312 314 312 313 313 312 313 316 315 316 320 321 322 321 318 318 321 322 324 324 322 320 320 319 316 315 315 315 314 313 313 313 314 314 315
306 305 304 302 302 303 304 306 309 310 310 312 315 313 313 312 314 313 315 315 318 318 319 321 318 320 321 321 321 324 319 319 321 322 321 313 315 311 310 309 313 313 313 314 313
306 305 304 301 300 302 303 304 307 307 310 310 314 312 311 314 313 313 316 313 317 318 315 314 318 319 321 320 320 319 319 320 320 321 319 318 318 312 311 310 309 309 310 310 309
305 305 304 300 302 302 303 304 305 310 313 315 313 315 315 313 313 316 317 313 313 316 314 313 311 316 317 317 319 317 317 316 315 316 316 315 315 309 309 310 309 309 308 308 306
304 305 303 300 300 303 304 304 308 309 305 314 314 315 314 316 316 315 318 318 315 317 317 316 316 313 313 317 316 316 317 318 318 314 315 311 314 310 308 309 309 309 309 307 305
304 305 302 300 301 303 303 305 307 301 307 307 313 314 315 314 315 316 316 317 315 311 313 316 311 315 313 315 318 318 317 317 317 320 314 311 316 314 310 308 306 306 305 304 305
305 302 301 301 302 302 296 303 295 299 305 311 312 314 314 314 313 314 315 315 316 312 313 313 313 311 312 312 314 318 321 314 313 300 309 311 309 307 307 307 307 306 306 306 305
302 300 301 303 302 302 294 301 297 304 308 309 310 310 310 313 312 314 314 312 314 313 311 312 311 311 312 314 314 317 315 319 312 313 310 311 310 311 309 306 306 306 305 305 305
299 297 301 303 302 300 291 288 299 300 305 310 309 311 310 311 311 314 314 311 312 313 312 313 314 313 313 315 316 316 318 318 317 315 314 310 309 304 307 307 305 304 305 304 303
296 302 301 301 297 295 296 286 298 303 303 306 305 307 310 310 312 311 313 312 308 312 314 312 314 312 313 312 312 314 315 318 320 314 310 311 317 305 304 304 303 307 305 303 303
297 300 300 298 291 293 291 296 297 300 302 304 304 304 303 307 310 309 311 306 311 312 314 314 315 316 314 313 312 313 314 314 313 310 316 315 314 306 307 307 305 306 306 305 306
299 301 297 294 284 291 290 291 294 296 301 302 304 303 303 302 302 304 306 306 305 307 309 313 313 312 312 310 313 315 314 314 315 317 316 315 314 312 309 308 306 305 304 303 303
293 297 294 296 290 291 293 292 291 294 298 299 300 303 303 302 301 301 303 304 307 309 308 312 313 312 312 310 312 314 315 314 316 316 317 315 313 313 312 310 307 307 306 306 305
293 295 287 281 292 293 293 292 296 294 297 298 297 299 302 299 300 300 301 304 304 306 308 304 313 312 314 312 312 314 312 311 314 314 314 314 314 312 311 308 307 307 306 305 305
295 293 291 294 288 292 293 294 296 296 296 297 298 298 299 299 298 297 297 298 300 304 304 305 306 302 297 308 311 314 312 312 312 312 313 315 313 312 311 310 308 306 305 305 304
Wind_Speed
11 12 13 12 13 13 14 14 12 10 7 10 5 4 5 4 6 14 6 7 11 17 14 18 17 19 7 5 6 1 4 3 6 7 4 5 4 1 2 6 2 1 4 1 22
13 13 14 15 13 14 14 15 13 11 11 11 10 4 4 3 3 9 19 18 18 14 12 14 10 11 5 6 4 4 3 6 4 4 5 5 3 8 4 4 1 1 2 12 23
13 15 15 13 12 12 12 16 14 14 14 13 9 8 5 3 2 6 15 14 15 12 7 5 12 3 4 2 4 2 3 1 1 1 5 6 3 2 8 3 6 9 7 9 13
13 13 14 11 10 10 10 13 15 13 13 12 9 8 6 5 7 3 4 8 9 7 3 2 6 3 2 3 3 2 2 1 1 3 3 7 5 2 3 4 3 8 11 12 9
13 13 12 11 7 7 9 8 12 14 13 12 11 9 5 2 5 2 3 6 1 3 2 2 2 1 2 2 3 3 4 4 2 5 4 5 3 2 5 3 4 9 7 10 9
14 14 13 13 9 6 7 10 9 11 15 14 14 11 2 4 5 4 2 3 5 0 2 3 1 2 1 2 3 1 2 3 4 2 2 3 1 2 1 2 5 8 10 8 8
11 13 14 11 9 7 6 7 11 9 14 15 14 14 2 9 1 4 5 3 2 1 3 1 2 3 2 2 2 1 2 3 2 1 1 4 3 7 2 2 5 7 7 7 12
13 13 13 12 11 9 7 7 9 9 12 16 15 10 4 7 11 4 5 3 4 2 5 4 1 2 1 2 4 3 4 3 2 2 1 4 7 10 5 4 7 7 7 8 10
15 13 12 10 9 12 7 6 8 13 8 15 13 7 5 1 8 7 5 4 4 4 2 10 3 1 2 4 3 6 3 3 5 8 3 4 7 7 5 6 9 8 8 9 8
18 15 12 11 9 11 7 4 7 7 8 15 9 3 2 4 5 10 6 6 2 4 3 4 4 1 3 3 5 5 4 5 6 2 3 4 8 9 3 5 9 8 9 8 8
19 18 14 11 9 8 6 5 5 4 5 2 6 1 3 2 6 6 6 5 3 3 4 5 4 8 9 8 1 2 1 4 2 2 1 6 7 14 6 4 9 10 9 9 12
20 19 16 13 9 8 6 2 3 2 2 5 6 2 4 2 4 1 10 4 4 5 5 4 10 7 5 3 3 1 2 3 4 2 1 5 8 11 8 7 8 9 10 11 7
19 20 18 14 9 7 3 0 6 2 2 3 4 3 3 4 3 6 9 4 3 5 8 4 3 6 6 3 4 1 4 3 4 5 1 5 9 7 8 4 7 8 13 10 14
20 21 20 15 8 7 3 9 2 3 4 3 6 5 3 5 0 4 9 3 2 7 5 4 2 4 4 3 6 5 6 5 2 2 5 2 8 4 3 8 5 9 13 16 13
22 22 23 21 8 8 6 7 2 5 3 6 6 7 7 5 6 2 3 3 6 6 5 5 5 4 3 4 6 4 5 6 5 3 3 1 4 4 2 5 10 12 14 12 8
22 23 27 15 8 9 11 12 7 3 6 6 6 9 8 3 2 3 2 3 2 3 4 3 1 4 6 4 10 5 5 5 4 3 4 7 6 5 5 6 5 6 6 8 9
22 27 29 16 7 17 19 7 2 1 2 4 4 9 14 7 6 5 6 6 5 4 4 0 3 1 2 5 2 2 6 1 2 1 6 3 6 13 8 9 6 9 9 7 7
23 33 23 9 18 19 9 3 2 2 4 3 4 10 10 6 5 5 9 9 7 3 3 6 5 8 5 5 5 6 6 4 7 4 4 1 7 6 5 9 9 7 8 7 8
33 22 20 17 19 17 5 3 5 4 3 1 7 5 4 4 5 5 6 5 9 8 6 5 4 3 5 5 8 4 10 5 4 2 2 4 6 8 6 10 9 9 7 8 8
18 16 5 20 20 7 4 3 3 2 4 3 2 1 3 6 4 11 7 4 5 11 2 3 1 1 2 1 1 6 6 3 1 2 4 5 5 6 7 9 6 9 8 8 7
17 3 8 19 14 4 3 5 2 1 3 4 1 3 3 4 5 6 2 2 4 9 11 5 1 2 5 6 8 3 3 3 4 5 4 2 5 7 7 6 7 6 6 7 8
5 3 10 15 3 2 1 3 2 1 2 3 2 4 4 3 3 5 6 2 6 7 10 6 4 4 7 0 2 6 5 9 5 3 2 2 15 4 8 5 5 2 7 6 4
3 3 6 1 3 1 2 3 2 3 1 2 2 2 3 2 1 1 2 5 2 2 6 6 4 6 1 2 3 5 5 5 4 3 15 7 12 6 4 3 5 5 7 4 5
3 3 2 3 1 6 4 1 2 3 3 2 3 2 4 1 1 2 1 3 7 2 9 5 4 5 9 4 5 5 8 16 12 8 19 13 27 16 4 7 4 8 9 8 8
2 1 1 3 1 3 3 2 2 1 3 3 3 0 4 3 3 1 1 2 5 5 4 5 4 3 11 2 2 1 5 14 18 21 8 19 15 22 17 11 11 12 7 7 10
3 4 3 1 4 6 2 6 9 3 5 4 4 5 4 5 5 4 1 2 3 2 3 2 1 3 3 5 8 13 12 10 12 17 18 23 22 25 21 7 5 8 6 10 13
3 3 4 2 2 5 4 6 8 5 4 4 7 4 3 7 5 4 4 4 4 3 2 2 3 3 5 6 7 6 23 18 19 15 8 14 24 23 21 15 7 6 9 11 9
Wind_Direction
277 280 290 291 282 264 245 237 224 236 230 252 217 182 218 225 189 244 269 263 303 320 334 322 325 349 10 10 16 97 66 147 179 160 174 171 135 193 74 111 102 7 157 167 156
260 278 282 291 283 274 250 233 224 216 210 218 229 192 196 172 218 216 236 270 288 300 327 359 327 345 2 356 2 72 90 184 178 188 163 157 144 157 129 126 22 62 30 146 158
265 256 272 269 279 266 257 228 221 207 206 207 201 209 219 134 254 241 237 255 274 283 287 294 276 282 26 330 342 357 117 186 85 165 141 137 119 112 125 224 206 190 174 164 166
264 256 254 269 273 270 258 233 218 211 208 204 197 191 197 179 216 45 203 242 270 276 233 280 299 353 46 321 344 67 78 46 44 15 108 141 137 97 192 215 274 199 162 164 176
256 259 252 257 274 269 252 234 214 209 212 198 194 187 170 180 266 55 51 104 245 228 188 175 246 218 215 294 5 39 4 46 54 68 85 106 86 159 248 324 60 133 153 182 189
251 248 251 247 255 276 264 246 222 212 208 195 185 179 148 217 293 218 169 39 108 211 105 158 269 286 142 194 151 175 27 5 359 24 76 104 101 77 277 108 108 160 190 201 207
248 247 240 237 242 272 288 257 222 213 204 197 180 174 92 229 351 234 204 288 45 163 113 220 52 51 341 156 298 137 115 26 334 323 132 130 320 239 177 140 160 198 213 224 230
235 243 239 239 234 259 279 252 229 199 204 188 176 164 225 215 236 185 170 180 118 121 126 82 253 92 45 322 22 91 49 100 275 149 338 116 253 261 213 166 220 217 229 240 249
225 234 232 228 229 240 253 251 215 208 200 176 159 164 236 261 189 195 174 180 133 138 56 95 78 45 36 113 46 7 154 170 302 209 122 149 240 280 206 198 237 237 239 241 260
220 221 225 222 222 218 228 219 202 196 187 147 133 104 194 214 175 175 154 137 140 121 55 76 72 80 25 121 197 179 181 221 206 193 184 158 248 258 232 176 241 258 262 269 260
219 213 216 217 213 202 233 139 120 234 174 152 162 61 131 122 125 168 152 108 103 109 164 155 155 201 203 198 181 149 104 190 278 283 206 223 234 260 256 220 253 249 253 245 249
215 208 207 203 203 202 218 240 65 338 127 98 164 169 91 141 94 105 162 129 149 176 150 146 224 209 192 184 207 173 163 231 290 297 184 283 255 256 263 226 221 245 249 247 246
210 203 198 192 183 195 168 207 59 137 97 180 160 149 149 151 148 181 153 152 145 168 182 189 173 179 162 167 160 182 198 174 230 328 288 319 271 231 259 215 237 245 249 250 240
203 197 188 172 166 177 196 213 86 58 43 211 172 226 126 145 152 166 167 131 171 182 127 241 199 127 141 187 145 228 184 165 163 51 251 35 290 265 286 276 226 258 251 251 250
199 193 179 173 151 157 169 188 123 15 169 171 152 169 146 174 126 223 179 58 166 179 135 213 175 162 172 184 159 222 155 173 168 196 343 219 295 271 5 293 270 241 252 263 261
197 182 166 163 133 158 144 137 98 164 233 176 136 165 141 137 93 94 148 38 138 104 30 195 296 157 198 153 177 161 99 59 49 97 271 190 187 209 189 207 268 263 259 274 296
189 172 171 162 151 140 136 84 155 196 340 149 143 164 175 166 144 152 173 165 154 155 195 172 237 6 114 99 80 144 124 59 6 332 237 325 194 263 304 277 227 277 297 312 289
171 162 158 156 146 152 112 88 159 261 231 235 129 151 177 138 193 152 160 196 210 97 115 187 301 167 180 172 168 189 163 161 199 206 266 38 234 260 231 282 281 271 291 308 317
149 140 144 146 152 159 80 119 185 241 266 310 99 158 140 150 152 166 182 213 191 179 181 150 262 195 177 170 149 181 219 160 96 30 52 231 286 288 295 277 299 300 337 326 321
113 99 78 151 157 141 74 157 113 303 0 345 107 75 147 167 138 185 169 228 218 179 173 175 358 288 212 86 254 168 158 127 73 245 265 260 259 235 294 291 319 311 332 312 311
88 88 134 148 141 43 136 213 285 4 51 7 84 117 130 124 168 179 196 296 195 182 185 123 240 269 133 198 179 153 203 215 165 170 196 276 254 214 229 245 271 297 303 296 315
88 96 150 153 68 3 74 184 261 55 94 21 67 74 82 64 194 184 209 260 354 168 191 198 178 198 210 235 290 234 228 204 194 247 246 232 262 187 210 225 191 221 298 294 296
73 66 56 118 115 50 338 4 321 357 12 147 112 66 75 104 141 111 315 343 38 49 173 171 209 217 280 349 337 209 208 211 132 98 235 231 261 11 179 233 215 272 272 269 321
97 117 48 51 138 134 128 245 336 341 321 360 93 77 107 39 115 177 216 273 7 13 298 32 216 214 221 198 139 177 202 214 203 215 242 225 260 260 258 256 234 258 260 275 278
32 130 160 181 280 106 92 123 78 0 339 356 17 280 150 139 334 346 35 159 198 234 229 165 233 226 253 300 53 156 213 216 217 234 225 251 243 262 258 248 241 247 268 289 279
118 133 20 76 131 106 178 211 182 207 163 250 163 199 210 180 177 188 55 24 259 336 124 104 34 306 264 253 270 265 258 244 238 242 242 251 263 269 275 252 235 256 254 252 259
91 84 96 85 81 119 212 183 201 155 224 202 201 133 190 249 238 222 205 241 247 322 341 177 141 45 261 5 271 235 235 233 238 238 212 238 248 261 275 273 259 232 235 253 271